一网星座-0164星 (ONEWEB-0164 )

导读 | 豆包AI

ONEWEB-0164是英国OneWeb低轨卫星星座的一员,于2021年3月25日发射升空。作为OneWeb一期组网卫星,它重约147.5公斤,设计寿命5年,运行于1200公里近地轨道,配备Ku/Ka波段多波束天线,单星通信能力约7.5Gbps,为全球提供高速卫星互联网接入,助力偏远地区连接,是OneWeb实现全球覆盖的重要组成部分。

Basic Information
目录编号:
48063
目录名称:
ONEWEB-0164
国际标识:
2021-025X
轨道中心:
EARTH
卫星名称:
一网星座-0164星
卫星全名:
一网星座-0164星 (ONEWEB-0164 )
卫星状态:
在轨 (已飞行1861 天)
发射日期:
2021-03-25 UTC
国别 :
英国 (GB)
星等 :
--
Orbit Information
数据来源 国际轨道数据 AOE轨道数据
星历时间 2026-04-29T05:15:01+0800
3小时前
查看轨道信息
2026-04-29T04:00:00+0800
4小时前
查看轨道信息
半长轴 7587.904km 7587.917km
偏心率 0.0001809 0.0001663
轨道倾角 87.897° 87.896°
近地点辐角 84.960° 88.200°
升交点赤经 330.039° 330.050°
平近点角 275.173° 25.714°
近地点 1208.394km 1208.518km
远地点 1211.14km 1211.042km
周期 109.633分钟 109.634分钟
每日圈数 13.134698 13.134663
Detailed Information
平衡模式:
三轴稳定
覆盖范围:
全球
运营商:
一网卫星公司
运营商所在国:
英国
制造商(研发单位):
一网卫星公司
制造商所在国:
英国
使用方式:
暂无
Satellite Introduction
OneWeb卫星网络由648颗重约125公斤的微型卫星组成,运行在1200公里的轨道上。 每颗卫星都能够提供至少每秒8千兆位的吞吐量,以使用其高吞吐量的Ku频段有效载荷为家庭和移动平台提供互联网接入。该卫星仍在工作。
2D Orbit Map
3D Orbit Map
Orbit Altitude Analysis Chart
Orbit Inclination Analysis Chart
Orbit Comprehensive Analysis Chart
View Comprehensive Chart